QPF
0.00 0.00 0.00 0.00 0.00 0.00 0.00 0.01 0.03 0.00 0.00 0.00 0.00 0.00 0.00 0.00 0.00 0.00 0.03 0.16 0.01 0.00 0.00 0.00 0.00 0.00 0.00 0.00 0.00 0.00 0.00 0.00 0.00 0.00 0.00 0.00 0.00 0.00 0.01 0.05 0.03 0.00 0.00
0.00 0.00 0.00 0.00 0.00 0.00 0.00 0.00 0.02 0.00 0.00 0.00 0.00 0.00 0.02 0.01 0.00 0.00 0.00 0.04 0.00 0.00 0.00 0.00 0.00 0.00 0.00 0.00 0.00 0.00 0.00 0.00 0.00 0.00 0.00 0.00 0.00 0.00 0.00 0.01 0.10 0.01 0.00
0.00 0.00 0.00 0.00 0.00 0.00 0.00 0.00 0.01 0.00 0.00 0.00 0.04 0.04 0.06 0.08 0.04 0.00 0.00 0.00 0.00 0.00 0.00 0.00 0.00 0.00 0.00 0.00 0.00 0.00 0.00 0.00 0.00 0.00 0.00 0.04 0.00 0.00 0.00 0.01 0.04 0.01 0.01
0.00 0.00 0.00 0.00 0.00 0.00 0.00 0.00 0.00 0.00 0.00 0.01 0.06 0.03 0.05 0.05 0.01 0.00 0.00 0.00 0.00 0.00 0.00 0.00 0.00 0.00 0.00 0.00 0.00 0.00 0.00 0.00 0.00 0.00 0.00 0.09 0.01 0.00 0.00 0.00 0.00 0.01 0.01
0.00 0.00 0.00 0.00 0.00 0.00 0.00 0.00 0.00 0.00 0.00 0.00 0.00 0.00 0.00 0.00 0.00 0.00 0.00 0.00 0.00 0.00 0.00 0.00 0.00 0.00 0.00 0.00 0.00 0.00 0.00 0.00 0.00 0.00 0.00 0.00 0.05 0.01 0.01 0.00 0.00 0.00 0.00
0.00 0.00 0.00 0.00 0.00 0.00 0.00 0.00 0.00 0.00 0.00 0.00 0.00 0.00 0.00 0.00 0.00 0.01 0.00 0.00 0.00 0.00 0.00 0.00 0.00 0.00 0.00 0.00 0.00 0.00 0.00 0.00 0.01 0.00 0.00 0.00 0.05 0.16 0.04 0.00 0.04 0.07 0.07
0.00 0.00 0.00 0.00 0.00 0.00 0.00 0.00 0.00 0.00 0.00 0.00 0.00 0.00 0.00 0.01 0.03 0.05 0.04 0.03 0.05 0.02 0.00 0.00 0.00 0.00 0.00 0.00 0.00 0.00 0.00 0.00 0.02 0.01 0.00 0.00 0.03 0.05 0.04 0.00 0.00 0.09 0.06
0.00 0.00 0.00 0.00 0.00 0.00 0.00 0.00 0.00 0.00 0.00 0.00 0.00 0.00 0.00 0.03 0.03 0.06 0.01 0.02 0.07 0.03 0.01 0.00 0.00 0.00 0.00 0.00 0.00 0.00 0.00 0.00 0.00 0.01 0.00 0.00 0.02 0.07 0.05 0.00 0.00 0.04 0.04
0.00 0.00 0.00 0.00 0.00 0.00 0.01 0.03 0.05 0.02 0.03 0.02 0.02 0.01 0.00 0.03 0.05 0.06 0.08 0.02 0.00 0.00 0.00 0.00 0.00 0.00 0.00 0.00 0.00 0.00 0.00 0.00 0.00 0.01 0.00 0.00 0.01 0.01 0.02 0.01 0.00 0.01 0.04
0.00 0.00 0.00 0.00 0.00 0.00 0.00 0.01 0.02 0.00 0.01 0.00 0.02 0.01 0.01 0.02 0.02 0.01 0.02 0.02 0.00 0.03 0.02 0.02 0.05 0.06 0.02 0.02 0.00 0.00 0.00 0.00 0.00 0.02 0.00 0.01 0.00 0.00 0.00 0.02 0.04 0.04 0.07
0.00 0.00 0.00 0.00 0.00 0.00 0.00 0.00 0.00 0.00 0.00 0.00 0.01 0.00 0.00 0.00 0.00 0.01 0.01 0.00 0.00 0.00 0.00 0.01 0.09 0.02 0.00 0.01 0.00 0.00 0.00 0.00 0.00 0.00 0.00 0.00 0.00 0.00 0.00 0.01 0.04 0.03 0.02
0.00 0.00 0.00 0.00 0.00 0.00 0.00 0.00 0.00 0.00 0.00 0.00 0.00 0.00 0.00 0.00 0.00 0.00 0.00 0.00 0.00 0.00 0.00 0.01 0.04 0.00 0.00 0.04 0.02 0.00 0.00 0.00 0.00 0.00 0.00 0.00 0.00 0.00 0.00 0.00 0.01 0.00 0.00
0.00 0.00 0.00 0.00 0.00 0.00 0.00 0.00 0.00 0.00 0.00 0.00 0.00 0.00 0.00 0.00 0.00 0.00 0.00 0.00 0.00 0.00 0.00 0.00 0.03 0.02 0.00 0.01 0.00 0.00 0.00 0.00 0.00 0.00 0.00 0.00 0.00 0.00 0.00 0.00 0.00 0.00 0.00
0.00 0.00 0.00 0.00 0.00 0.00 0.00 0.00 0.00 0.00 0.00 0.00 0.00 0.00 0.00 0.00 0.00 0.00 0.00 0.00 0.00 0.00 0.00 0.00 0.02 0.08 0.00 0.00 0.00 0.00 0.00 0.00 0.00 0.00 0.00 0.00 0.00 0.00 0.00 0.00 0.00 0.00 0.00
0.00 0.00 0.00 0.00 0.00 0.00 0.00 0.00 0.00 0.00 0.00 0.00 0.00 0.00 0.00 0.00 0.00 0.00 0.00 0.00 0.00 0.00 0.00 0.00 0.00 0.00 0.01 0.00 0.00 0.01 0.00 0.00 0.00 0.00 0.00 0.00 0.00 0.00 0.00 0.00 0.00 0.00 0.00
0.00 0.00 0.00 0.00 0.00 0.00 0.00 0.00 0.00 0.00 0.00 0.00 0.00 0.00 0.00 0.00 0.00 0.00 0.00 0.00 0.00 0.00 0.00 0.00 0.00 0.00 0.00 0.00 0.00 0.00 0.00 0.00 0.00 0.00 0.00 0.00 0.00 0.00 0.00 0.00 0.00 0.00 0.00
0.00 0.00 0.00 0.00 0.00 0.00 0.00 0.00 0.00 0.00 0.00 0.00 0.00 0.00 0.00 0.00 0.00 0.00 0.00 0.00 0.00 0.00 0.00 0.00 0.00 0.00 0.00 0.00 0.00 0.00 0.00 0.00 0.00 0.00 0.00 0.00 0.00 0.00 0.00 0.00 0.00 0.00 0.00
0.00 0.00 0.00 0.00 0.00 0.00 0.00 0.00 0.00 0.00 0.00 0.00 0.00 0.00 0.00 0.00 0.00 0.00 0.00 0.00 0.00 0.00 0.00 0.00 0.00 0.00 0.00 0.00 0.00 0.00 0.00 0.00 0.00 0.00 0.00 0.00 0.00 0.00 0.00 0.00 0.00 0.00 0.00
0.00 0.00 0.00 0.00 0.00 0.00 0.00 0.00 0.00 0.00 0.00 0.00 0.00 0.00 0.00 0.00 0.00 0.00 0.00 0.00 0.00 0.00 0.00 0.00 0.00 0.00 0.00 0.00 0.00 0.00 0.02 0.01 0.00 0.00 0.00 0.00 0.00 0.00 0.00 0.00 0.00 0.00 0.00
0.00 0.00 0.00 0.00 0.00 0.00 0.00 0.00 0.00 0.00 0.00 0.00 0.00 0.00 0.00 0.00 0.00 0.00 0.00 0.00 0.00 0.00 0.00 0.00 0.00 0.00 0.00 0.00 0.00 0.00 0.01 0.01 0.00 0.00 0.00 0.00 0.00 0.00 0.00 0.00 0.00 0.00 0.00
0.00 0.00 0.00 0.00 0.00 0.00 0.00 0.00 0.00 0.00 0.00 0.00 0.00 0.00 0.00 0.00 0.00 0.00 0.00 0.00 0.00 0.00 0.00 0.00 0.00 0.01 0.00 0.00 0.01 0.00 0.00 0.00 0.00 0.00 0.00 0.00 0.00 0.00 0.00 0.00 0.00 0.00 0.00
0.00 0.00 0.00 0.00 0.00 0.00 0.00 0.00 0.00 0.00 0.00 0.00 0.00 0.00 0.00 0.00 0.00 0.00 0.00 0.00 0.00 0.00 0.00 0.00 0.01 0.00 0.00 0.00 0.03 0.04 0.00 0.00 0.00 0.01 0.00 0.00 0.00 0.00 0.00 0.00 0.00 0.00 0.01
0.00 0.00 0.00 0.00 0.00 0.00 0.00 0.00 0.00 0.00 0.00 0.00 0.00 0.00 0.00 0.00 0.00 0.00 0.00 0.00 0.00 0.00 0.00 0.00 0.02 0.03 0.00 0.00 0.01 0.03 0.01 0.00 0.00 0.00 0.02 0.03 0.01 0.00 0.00 0.00 0.00 0.00 0.00
0.00 0.00 0.00 0.00 0.00 0.00 0.00 0.00 0.00 0.00 0.00 0.00 0.00 0.00 0.00 0.00 0.00 0.00 0.00 0.00 0.00 0.00 0.00 0.00 0.00 0.02 0.06 0.01 0.00 0.01 0.00 0.00 0.00 0.00 0.01 0.01 0.00 0.00 0.00 0.00 0.00 0.00 0.00
0.00 0.00 0.00 0.00 0.00 0.00 0.00 0.00 0.00 0.00 0.00 0.00 0.00 0.00 0.00 0.00 0.00 0.00 0.00 0.00 0.00 0.00 0.02 0.01 0.01 0.04 0.05 0.04 0.01 0.00 0.03 0.03 0.01 0.02 0.01 0.00 0.00 0.00 0.02 0.03 0.01 0.00 0.00
0.00 0.00 0.00 0.00 0.00 0.00 0.00 0.00 0.00 0.00 0.00 0.00 0.00 0.00 0.00 0.00 0.00 0.00 0.00 0.00 0.00 0.04 0.03 0.03 0.05 0.04 0.05 0.05 0.05 0.05 0.07 0.07 0.05 0.07 0.05 0.02 0.01 0.00 0.03 0.01 0.01 0.00 0.00
MSLP
1012.14 1012.86 1013.48 1013.76 1014.06 1014.19 1014.48 1014.80 1015.30 1015.61 1015.72 1016.04 1016.22 1016.46 1016.58 1016.68 1016.90 1017.02 1017.14 1017.49 1017.50 1017.54 1017.62 1017.78 1017.81 1017.86 1017.96 1018.01 1017.96 1017.94 1017.92 1017.88 1017.88 1017.84 1017.82 1017.88 1018.03 1018.12 1018.25 1018.33 1018.28 1018.32 1018.90
1011.42 1012.64 1013.51 1013.80 1014.19 1014.36 1014.59 1014.99 1015.39 1015.64 1015.86 1016.10 1016.36 1016.58 1016.70 1016.82 1017.04 1017.23 1017.34 1017.54 1017.64 1017.72 1017.82 1017.92 1018.04 1018.16 1018.18 1018.16 1018.20 1018.20 1018.18 1018.11 1018.04 1017.87 1017.73 1017.66 1018.10 1018.40 1018.54 1018.77 1018.66 1018.75 1019.22
1010.79 1012.32 1013.31 1013.90 1014.30 1014.53 1014.85 1015.14 1015.42 1015.68 1015.97 1016.20 1016.56 1016.58 1016.81 1017.02 1017.18 1017.33 1017.53 1017.65 1017.76 1017.83 1017.91 1018.02 1018.09 1018.20 1018.29 1018.28 1018.30 1018.32 1018.38 1018.34 1018.13 1017.76 1016.74 1015.76 1016.78 1018.21 1018.68 1018.87 1018.92 1019.06 1019.31
1010.60 1012.08 1012.88 1014.08 1014.40 1014.75 1014.98 1015.30 1015.49 1015.76 1016.01 1016.29 1016.67 1016.80 1016.86 1017.03 1017.25 1017.44 1017.65 1017.85 1017.94 1017.97 1018.06 1018.12 1018.18 1018.26 1018.36 1018.41 1018.43 1018.34 1018.36 1018.35 1018.23 1017.79 1016.03 1014.96 1016.11 1017.68 1018.60 1018.99 1019.22 1019.28 1019.50
1010.64 1011.68 1012.91 1014.21 1014.57 1014.88 1015.23 1015.42 1015.66 1015.86 1016.08 1016.37 1016.60 1016.81 1016.94 1017.13 1017.35 1017.50 1017.70 1017.88 1017.98 1018.05 1018.12 1018.14 1018.14 1018.20 1018.36 1018.45 1018.46 1018.44 1018.40 1018.34 1018.17 1017.74 1016.59 1015.57 1015.39 1016.92 1018.27 1019.07 1019.36 1019.62 1019.80
1010.72 1011.48 1013.66 1014.33 1014.70 1015.06 1015.36 1015.57 1015.79 1016.00 1016.27 1016.51 1016.72 1016.88 1017.02 1017.20 1017.40 1017.62 1017.76 1017.89 1017.98 1018.05 1018.13 1018.11 1018.11 1018.24 1018.36 1018.47 1018.50 1018.50 1018.42 1018.25 1018.22 1017.41 1016.47 1016.41 1016.52 1017.46 1018.08 1018.99 1019.32 1019.51 1019.91
1010.68 1011.67 1013.60 1014.47 1014.87 1015.17 1015.50 1015.69 1015.89 1016.12 1016.32 1016.50 1016.70 1016.83 1017.02 1017.20 1017.40 1017.66 1017.81 1017.88 1017.95 1018.01 1018.12 1018.18 1018.25 1018.25 1018.33 1018.36 1018.42 1018.45 1018.44 1018.22 1017.86 1017.12 1016.66 1016.55 1017.13 1017.79 1018.49 1019.06 1019.35 1019.83 1019.94
1010.31 1011.78 1013.40 1014.65 1015.00 1015.34 1015.62 1015.77 1016.02 1016.26 1016.45 1016.58 1016.67 1016.83 1017.01 1017.22 1017.48 1017.68 1017.70 1017.83 1018.08 1017.99 1018.18 1018.19 1018.22 1018.27 1018.31 1018.29 1018.35 1018.36 1018.36 1018.23 1017.21 1016.96 1016.75 1016.74 1017.94 1018.33 1018.72 1019.16 1019.46 1019.79 1020.00
1010.02 1011.26 1012.90 1013.95 1014.76 1015.33 1015.57 1015.77 1016.06 1016.27 1016.50 1016.60 1016.63 1016.80 1017.05 1017.32 1017.54 1017.70 1017.84 1017.80 1017.90 1018.00 1018.08 1018.10 1018.18 1018.19 1018.22 1018.27 1018.27 1018.24 1018.22 1018.05 1017.42 1017.02 1016.28 1016.95 1017.87 1018.27 1018.87 1019.14 1019.44 1019.74 1020.03
1010.12 1010.59 1011.76 1013.09 1013.90 1014.36 1014.89 1015.79 1016.12 1016.28 1016.42 1016.52 1016.62 1016.78 1016.96 1017.09 1017.30 1017.48 1017.66 1017.71 1017.80 1017.85 1017.91 1017.95 1017.96 1018.04 1017.98 1017.91 1017.92 1017.93 1017.91 1017.70 1017.30 1017.60 1016.84 1017.21 1017.87 1018.27 1018.78 1019.14 1019.47 1019.75 1019.92
1010.30 1010.42 1010.97 1012.71 1013.92 1014.34 1014.05 1014.98 1015.85 1016.16 1016.32 1016.40 1016.38 1016.59 1016.75 1016.04 1016.37 1016.55 1016.82 1017.40 1017.64 1017.80 1017.83 1017.82 1017.77 1017.80 1017.57 1017.12 1017.21 1017.38 1017.52 1016.68 1016.44 1015.56 1016.62 1017.45 1017.77 1018.28 1018.70 1018.98 1019.26 1019.58 1019.77
1010.20 1010.28 1010.73 1011.14 1012.57 1013.92 1013.51 1014.38 1014.53 1014.65 1015.00 1015.23 1015.13 1015.81 1015.88 1015.04 1015.89 1016.02 1016.49 1016.96 1017.26 1017.46 1017.48 1017.49 1017.42 1017.30 1016.87 1016.01 1016.66 1017.06 1016.61 1016.57 1016.03 1015.49 1016.50 1017.34 1017.82 1018.37 1018.67 1018.85 1019.14 1019.35 1019.60
1010.12 1010.46 1010.83 1010.56 1011.28 1012.54 1012.57 1012.84 1013.78 1013.55 1013.88 1014.41 1015.26 1015.34 1015.13 1015.15 1015.01 1014.95 1015.36 1015.74 1016.16 1016.91 1016.25 1016.78 1016.76 1016.82 1016.14 1015.94 1016.49 1016.25 1016.04 1016.06 1015.77 1015.34 1016.71 1017.04 1017.67 1018.18 1018.56 1018.80 1019.02 1019.18 1019.40
1009.68 1010.20 1010.69 1010.85 1011.22 1011.44 1011.98 1012.58 1013.48 1013.33 1013.18 1013.49 1014.44 1015.30 1015.47 1015.12 1014.54 1014.79 1014.34 1014.46 1015.36 1015.70 1015.62 1015.66 1016.19 1016.53 1015.90 1015.94 1015.84 1016.19 1015.65 1015.73 1015.22 1015.46 1016.38 1016.88 1017.52 1017.87 1018.10 1018.39 1018.66 1018.87 1019.12
1009.45 1010.00 1010.33 1011.06 1011.70 1012.03 1012.38 1012.49 1012.83 1012.62 1013.06 1013.04 1013.50 1014.43 1014.74 1014.25 1014.49 1014.48 1014.88 1014.89 1014.79 1014.82 1014.94 1015.39 1015.22 1015.47 1015.82 1015.32 1015.65 1015.58 1015.34 1015.00 1015.26 1015.21 1015.29 1016.54 1017.15 1017.64 1017.94 1018.05 1018.26 1018.55 1018.76
1009.42 1009.92 1010.29 1011.11 1012.02 1012.32 1012.73 1013.05 1013.26 1013.01 1012.86 1013.43 1013.12 1013.40 1014.55 1014.41 1014.48 1014.40 1014.64 1014.65 1014.72 1014.67 1014.51 1014.65 1015.42 1015.45 1015.15 1014.90 1015.14 1015.02 1014.91 1014.79 1014.84 1014.89 1015.14 1015.94 1016.55 1017.03 1017.34 1017.63 1017.82 1018.08 1018.39
1009.14 1009.57 1010.20 1011.12 1011.78 1012.53 1012.93 1013.31 1013.38 1013.06 1012.95 1012.97 1013.32 1013.42 1013.89 1014.49 1014.55 1014.75 1014.44 1014.40 1014.16 1014.17 1014.52 1014.65 1014.94 1014.40 1014.53 1014.36 1014.48 1014.46 1014.54 1014.71 1014.49 1014.65 1014.73 1014.92 1015.71 1016.36 1016.60 1016.94 1017.20 1017.49 1017.85
1008.54 1009.29 1010.02 1010.60 1011.15 1012.09 1012.62 1013.01 1012.98 1012.99 1012.80 1012.65 1012.80 1012.94 1013.64 1014.14 1014.43 1014.55 1014.52 1014.04 1013.89 1013.77 1013.63 1013.96 1013.92 1013.80 1013.65 1013.59 1014.20 1014.35 1014.27 1014.74 1014.42 1014.25 1014.42 1014.40 1014.54 1014.40 1015.75 1016.08 1016.44 1016.92 1017.23
1008.54 1009.12 1009.83 1010.34 1010.73 1011.33 1012.27 1012.50 1012.76 1012.79 1012.87 1012.55 1012.36 1012.34 1012.76 1013.60 1014.01 1014.43 1014.02 1013.83 1013.83 1013.60 1013.54 1013.54 1013.29 1013.33 1013.27 1013.25 1013.11 1013.70 1014.40 1014.81 1014.43 1013.68 1013.84 1014.11 1014.14 1014.42 1014.46 1015.23 1015.73 1016.18 1016.67
1008.05 1008.83 1009.53 1010.06 1010.62 1011.07 1011.52 1012.23 1012.15 1012.19 1012.24 1012.06 1011.93 1011.85 1012.08 1012.64 1013.33 1013.72 1013.79 1013.64 1013.50 1013.50 1013.49 1013.42 1013.43 1013.30 1013.24 1013.00 1012.58 1013.05 1014.10 1014.25 1014.18 1013.30 1012.92 1013.18 1013.30 1013.64 1013.86 1013.86 1015.29 1015.63 1016.10
1007.40 1008.13 1008.89 1009.58 1010.12 1010.83 1011.15 1011.22 1011.43 1011.32 1011.33 1011.31 1011.32 1011.41 1011.71 1012.14 1012.42 1013.04 1013.43 1013.34 1013.45 1013.47 1013.37 1013.44 1013.57 1013.61 1013.67 1013.40 1012.93 1012.49 1012.92 1012.86 1012.65 1011.84 1012.27 1012.66 1013.18 1012.95 1013.44 1013.68 1013.99 1013.99 1014.62
1006.56 1007.30 1008.16 1008.96 1009.67 1010.26 1010.44 1010.57 1010.53 1010.49 1010.47 1010.45 1010.54 1010.67 1011.37 1011.81 1012.21 1012.48 1012.82 1012.81 1012.74 1012.79 1013.04 1013.26 1013.58 1013.65 1013.49 1012.96 1012.48 1012.10 1012.66 1012.31 1011.66 1012.06 1013.02 1013.09 1012.52 1011.94 1012.34 1012.90 1013.39 1013.80 1014.27
1005.66 1006.39 1007.24 1008.08 1008.90 1009.47 1009.96 1010.04 1010.20 1010.36 1010.18 1010.02 1010.16 1010.34 1010.58 1011.07 1011.60 1011.89 1012.05 1012.56 1012.59 1012.53 1012.18 1012.60 1012.96 1013.53 1013.47 1012.94 1012.55 1012.62 1012.40 1011.82 1011.54 1011.62 1013.36 1013.64 1013.27 1012.70 1012.33 1012.52 1012.86 1013.69 1014.29
1004.53 1005.37 1006.22 1007.03 1007.90 1008.72 1009.27 1009.55 1009.37 1009.32 1009.18 1009.18 1009.88 1010.06 1010.18 1010.50 1010.75 1011.10 1011.41 1011.74 1011.95 1012.14 1012.03 1012.08 1012.26 1012.41 1012.97 1012.83 1012.42 1012.12 1012.58 1012.83 1012.82 1012.58 1013.50 1012.85 1012.72 1012.68 1011.90 1012.05 1012.67 1012.94 1013.53
1003.33 1004.22 1004.99 1006.02 1006.90 1007.81 1008.22 1008.92 1008.90 1009.04 1008.72 1008.69 1008.86 1009.42 1009.59 1010.02 1010.28 1010.36 1010.48 1010.89 1011.16 1011.36 1011.36 1011.69 1011.59 1011.88 1011.99 1012.41 1012.37 1011.93 1012.04 1012.39 1012.70 1013.32 1013.24 1012.82 1012.68 1012.02 1013.00 1013.54 1012.89 1011.82 1012.71
1002.78 1003.44 1004.12 1005.16 1006.25 1007.21 1007.93 1008.37 1008.66 1008.84 1008.72 1008.49 1008.38 1008.43 1008.58 1008.90 1009.37 1009.68 1010.11 1010.33 1010.48 1010.32 1010.43 1010.54 1010.88 1011.26 1011.54 1011.71 1011.86 1011.95 1011.83 1012.47 1012.40 1012.82 1013.42 1013.42 1012.92 1012.29 1012.99 1013.01 1013.18 1012.95 1012.26
Thickness
5796 5792 5788 5785 5783 5782 5780 5776 5772 5770 5769 5765 5763 5761 5759 5758 5754 5752 5750 5748 5747 5746 5745 5741 5740 5739 5738 5738 5737 5736 5736 5736 5737 5738 5738 5738 5738 5739 5738 5739 5740 5739 5736
5807 5796 5788 5786 5782 5782 5780 5777 5773 5771 5769 5766 5764 5762 5760 5759 5755 5753 5751 5748 5747 5746 5745 5744 5741 5739 5739 5739 5739 5738 5737 5736 5737 5740 5741 5743 5740 5738 5737 5736 5737 5738 5735
5813 5799 5791 5786 5783 5782 5780 5777 5775 5773 5770 5768 5765 5764 5761 5759 5757 5755 5752 5750 5748 5747 5746 5745 5743 5742 5741 5740 5740 5740 5739 5738 5739 5743 5753 5760 5755 5742 5738 5736 5737 5736 5735
5815 5802 5794 5785 5784 5782 5780 5777 5776 5774 5771 5769 5765 5764 5763 5761 5759 5756 5753 5750 5748 5747 5746 5745 5744 5742 5741 5740 5739 5741 5741 5742 5743 5746 5760 5755 5766 5751 5742 5738 5735 5736 5735
5816 5806 5796 5787 5785 5782 5780 5779 5777 5774 5773 5770 5768 5766 5764 5762 5760 5758 5756 5753 5751 5749 5748 5748 5747 5746 5744 5742 5742 5741 5741 5742 5745 5749 5758 5769 5751 5764 5747 5740 5737 5735 5735
5817 5810 5794 5788 5785 5783 5781 5780 5778 5776 5774 5771 5769 5768 5766 5764 5762 5760 5758 5756 5754 5753 5751 5750 5750 5748 5746 5745 5744 5744 5744 5745 5746 5752 5759 5762 5764 5758 5751 5742 5739 5738 5736
5819 5810 5795 5789 5786 5785 5783 5781 5780 5778 5775 5773 5771 5770 5768 5766 5764 5762 5761 5759 5758 5757 5755 5753 5751 5750 5748 5748 5747 5746 5746 5748 5751 5757 5759 5762 5758 5756 5748 5742 5740 5737 5735
5825 5812 5798 5789 5788 5786 5784 5782 5780 5777 5776 5775 5774 5771 5769 5768 5766 5764 5764 5762 5760 5759 5757 5756 5754 5752 5751 5750 5750 5750 5749 5750 5758 5761 5761 5762 5754 5750 5747 5743 5739 5737 5735
5831 5819 5805 5796 5791 5787 5786 5784 5781 5779 5777 5776 5775 5773 5770 5768 5766 5765 5764 5764 5762 5761 5760 5760 5758 5756 5754 5752 5752 5752 5752 5755 5760 5764 5769 5763 5757 5752 5747 5744 5742 5739 5736
5832 5828 5816 5804 5798 5795 5792 5785 5782 5781 5780 5779 5777 5775 5773 5771 5769 5768 5766 5765 5764 5763 5763 5763 5761 5759 5757 5757 5758 5757 5756 5759 5761 5755 5768 5764 5758 5754 5749 5745 5743 5741 5739
5829 5830 5825 5809 5800 5797 5800 5793 5786 5784 5783 5782 5781 5779 5777 5781 5778 5776 5773 5768 5766 5764 5764 5764 5763 5762 5761 5763 5763 5763 5762 5769 5771 5778 5773 5765 5761 5756 5752 5749 5746 5743 5742
5824 5828 5827 5824 5811 5801 5804 5800 5798 5797 5795 5793 5793 5787 5785 5792 5785 5782 5777 5773 5769 5768 5767 5767 5767 5767 5769 5766 5770 5767 5770 5772 5776 5780 5773 5767 5763 5757 5754 5752 5750 5748 5745
5828 5828 5828 5831 5823 5812 5812 5811 5804 5807 5804 5800 5793 5791 5792 5792 5792 5791 5787 5784 5779 5773 5777 5773 5772 5772 5776 5778 5773 5774 5776 5776 5778 5782 5773 5771 5765 5760 5756 5753 5751 5750 5748
5832 5831 5831 5831 5827 5824 5820 5815 5808 5809 5810 5807 5799 5792 5791 5793 5797 5794 5796 5794 5787 5783 5783 5782 5778 5776 5779 5779 5778 5775 5778 5777 5782 5781 5775 5772 5767 5763 5761 5757 5754 5752 5750
5834 5833 5834 5830 5824 5821 5817 5816 5814 5816 5811 5811 5807 5799 5796 5800 5797 5796 5792 5791 5792 5791 5789 5785 5785 5784 5780 5783 5781 5780 5781 5784 5781 5782 5781 5774 5769 5765 5762 5761 5758 5755 5753
5836 5834 5835 5829 5822 5819 5816 5813 5811 5812 5813 5808 5811 5807 5798 5798 5797 5796 5793 5792 5791 5791 5792 5791 5786 5783 5785 5786 5786 5784 5785 5785 5784 5783 5781 5776 5773 5769 5766 5764 5762 5759 5756
5840 5839 5834 5828 5824 5817 5814 5810 5809 5811 5811 5811 5808 5807 5802 5797 5795 5792 5794 5793 5793 5793 5790 5788 5786 5790 5790 5791 5789 5789 5788 5787 5788 5785 5784 5782 5777 5773 5771 5768 5766 5763 5759
5846 5838 5836 5833 5829 5821 5816 5812 5811 5810 5811 5812 5810 5809 5803 5798 5794 5792 5791 5794 5794 5794 5794 5792 5793 5793 5794 5795 5789 5790 5787 5780 5788 5789 5785 5784 5783 5784 5776 5774 5770 5766 5763
5846 5840 5835 5834 5831 5827 5819 5817 5814 5811 5810 5812 5813 5812 5809 5800 5795 5790 5792 5792 5791 5792 5792 5793 5795 5795 5793 5794 5796 5788 5783 5775 5780 5792 5789 5785 5784 5782 5781 5778 5774 5770 5766
5850 5844 5839 5835 5831 5829 5826 5819 5820 5818 5816 5816 5816 5816 5813 5807 5800 5795 5792 5790 5790 5790 5789 5788 5786 5790 5790 5792 5797 5788 5780 5759 5775 5791 5797 5791 5789 5786 5784 5785 5774 5771 5768
5856 5849 5843 5837 5835 5830 5826 5823 5821 5819 5821 5821 5821 5818 5814 5808 5805 5798 5793 5792 5787 5786 5786 5785 5781 5778 5777 5783 5785 5791 5785 5786 5790 5802 5797 5791 5786 5786 5783 5783 5782 5781 5777
5861 5856 5850 5843 5839 5835 5833 5831 5830 5828 5828 5828 5826 5822 5814 5808 5803 5799 5795 5793 5793 5789 5786 5782 5778 5772 5773 5780 5776 5781 5766 5780 5794 5790 5774 5779 5787 5793 5788 5784 5782 5779 5775
5866 5863 5857 5851 5846 5842 5838 5836 5832 5829 5828 5825 5823 5821 5819 5812 5804 5800 5796 5790 5789 5788 5787 5784 5779 5769 5764 5772 5774 5768 5758 5763 5777 5786 5769 5750 5761 5781 5790 5774 5780 5774 5768
5876 5874 5867 5860 5853 5847 5843 5836 5833 5829 5824 5828 5821 5820 5817 5812 5807 5802 5797 5792 5788 5785 5783 5781 5781 5777 5767 5760 5767 5771 5768 5764 5753 5754 5760 5771 5764 5771 5788 5784 5773 5771 5766
5887 5881 5876 5867 5858 5851 5846 5837 5834 5828 5831 5831 5828 5820 5818 5813 5807 5803 5800 5796 5790 5785 5783 5777 5776 5772 5770 5763 5759 5762 5760 5761 5760 5747 5742 5758 5763 5773 5766 5757 5765 5776 5770
5891 5886 5881 5870 5859 5852 5845 5840 5833 5826 5825 5824 5823 5820 5819 5816 5810 5806 5798 5794 5790 5787 5782 5780 5776 5769 5764 5762 5760 5757 5756 5746 5751 5746 5737 5740 5745 5755 5754 5756 5756 5758 5761